When you browse on this site, cookies collect data to enhance your experience and personalize the content and advertising you see.
Visit our Privacy Policy to learn more. By continuing to use the site, you agree to this use of cookies and data.
  • In Romania
  • List of Countries
  • For 7 days
  • Water Temperature
  • Weather Map
  • Weather Widgets
  • user-avatar
    Login

    Hourly Weather Nzérékoré

    Today, 23 January, Thursday

    Time Temperature Precipitation Wind Pressure Humidity
    00:00 +27°C° 0 mm 2 mps 743 mmHg 18%
    01:00 +26°C° 0 mm 1 mps 743 mmHg 20%
    02:00 +25°C° 0 mm 1 mps 743 mmHg 22%
    03:00 +24°C° 0 mm 1 mps 743 mmHg 23%
    04:00 +23°C° 0 mm 1 mps 743 mmHg 24%
    05:00 +23°C° 0 mm 1 mps 744 mmHg 25%
    06:00 +22°C° 0 mm 1 mps 744 mmHg 26%
    07:00 +22°C° 0 mm 1 mps 745 mmHg 27%
    08:00 +25°C° 0 mm 2 mps 745 mmHg 22%
    09:00 +28°C° 0 mm 3 mps 746 mmHg 17%
    10:00 +32°C° 0 mm 5 mps 746 mmHg 13%
    11:00 +34°C° 0 mm 5 mps 745 mmHg 11%
    12:00 +37°C° 0 mm 5 mps 745 mmHg 9%
    13:00 +40°C° 0 mm 5 mps 744 mmHg 8%
    14:00 +40°C° 0 mm 5 mps 743 mmHg 8%
    15:00 +41°C° 0 mm 5 mps 742 mmHg 7%
    16:00 +41°C° 0 mm 5 mps 741 mmHg 7%
    17:00 +38°C° 0 mm 4 mps 741 mmHg 8%
    18:00 +35°C° 0 mm 3 mps 742 mmHg 10%
    19:00 +32°C° 0 mm 2 mps 742 mmHg 11%
    20:00 +30°C° 0 mm 2 mps 742 mmHg 12%
    21:00 +29°C° 0 mm 2 mps 743 mmHg 13%
    22:00 +28°C° 0 mm 2 mps 743 mmHg 14%
    23:00 +27°C° 0 mm 2 mps 743 mmHg 14%

    Tomorrow, 24 January, Friday

    Time Temperature Precipitation Wind Pressure Humidity
    00:00 +26°C° 0 mm 2 mps 743 mmHg 14%
    01:00 +26°C° 0 mm 3 mps 743 mmHg 14%
    02:00 +25°C° 0 mm 3 mps 743 mmHg 14%
    03:00 +25°C° 0 mm 3 mps 743 mmHg 14%
    04:00 +24°C° 0 mm 3 mps 743 mmHg 14%
    05:00 +23°C° 0 mm 2 mps 744 mmHg 16%
    06:00 +21°C° 0 mm 2 mps 744 mmHg 17%
    07:00 +21°C° 0 mm 2 mps 745 mmHg 18%
    08:00 +25°C° 0 mm 3 mps 745 mmHg 15%
    09:00 +28°C° 0 mm 4 mps 746 mmHg 12%
    10:00 +32°C° 0 mm 6 mps 746 mmHg 9%
    11:00 +34°C° 0 mm 5 mps 745 mmHg 8%
    12:00 +36°C° 0 mm 5 mps 745 mmHg 7%
    13:00 +39°C° 0 mm 5 mps 744 mmHg 6%
    14:00 +40°C° 0 mm 4 mps 743 mmHg 6%
    15:00 +40°C° 0 mm 4 mps 743 mmHg 6%
    16:00 +41°C° 0 mm 4 mps 742 mmHg 5%
    17:00 +37°C° 0 mm 3 mps 742 mmHg 6%
    18:00 +35°C° 0 mm 3 mps 742 mmHg 7%
    19:00 +31°C° 0 mm 2 mps 742 mmHg 8%
    20:00 +30°C° 0 mm 2 mps 743 mmHg 9%
    21:00 +28°C° 0 mm 2 mps 743 mmHg 9%
    22:00 +27°C° 0 mm 2 mps 744 mmHg 10%
    23:00 +26°C° 0 mm 2 mps 744 mmHg 10%

    Day after tomorrow, 25 January, Saturday

    Time Temperature Precipitation Wind Pressure Humidity
    00:00 +25°C° 0 mm 2 mps 744 mmHg 10%
    01:00 +25°C° 0 mm 2 mps 744 mmHg 10%
    02:00 +24°C° 0 mm 2 mps 744 mmHg 10%
    03:00 +23°C° 0 mm 2 mps 744 mmHg 11%
    04:00 +21°C° 0 mm 2 mps 744 mmHg 11%
    05:00 +21°C° 0 mm 2 mps 744 mmHg 12%
    06:00 +20°C° 0 mm 2 mps 745 mmHg 12%
    07:00 +20°C° 0 mm 2 mps 746 mmHg 13%
    08:00 +24°C° 0 mm 3 mps 746 mmHg 12%
    09:00 +27°C° 0 mm 4 mps 746 mmHg 10%
    10:00 +30°C° 0 mm 6 mps 747 mmHg 8%
    11:00 +33°C° 0 mm 5 mps 746 mmHg 7%
    12:00 +35°C° 0 mm 5 mps 745 mmHg 7%
    13:00 +37°C° 0 mm 5 mps 744 mmHg 6%
    14:00 +38°C° 0 mm 4 mps 744 mmHg 6%
    15:00 +38°C° 0 mm 4 mps 743 mmHg 6%
    16:00 +40°C° 0 mm 4 mps 742 mmHg 6%
    17:00 +36°C° 0 mm 3 mps 742 mmHg 7%
    18:00 +34°C° 0 mm 2 mps 742 mmHg 8%
    19:00 +30°C° 0 mm 2 mps 743 mmHg 9%
    20:00 +29°C° 0 mm 2 mps 743 mmHg 9%
    21:00 +28°C° 0 mm 2 mps 744 mmHg 10%
    22:00 +27°C° 0 mm 2 mps 744 mmHg 10%
    23:00 +26°C° 0 mm 2 mps 744 mmHg 11%

    26 January, Sunday

    Time Temperature Precipitation Wind Pressure Humidity
    00:00 +25°C° 0 mm 2 mps 744 mmHg 11%
    01:00 +24°C° 0 mm 2 mps 744 mmHg 11%
    02:00 +24°C° 0 mm 2 mps 744 mmHg 12%
    03:00 +23°C° 0 mm 1 mps 744 mmHg 13%
    04:00 +22°C° 0 mm 1 mps 744 mmHg 14%
    05:00 +21°C° 0 mm 1 mps 745 mmHg 14%
    06:00 +20°C° 0 mm 1 mps 745 mmHg 15%
    07:00 +19°C° 0 mm 1 mps 746 mmHg 16%
    08:00 +23°C° 0 mm 2 mps 746 mmHg 14%
    09:00 +26°C° 0 mm 3 mps 746 mmHg 12%
    10:00 +30°C° 0 mm 4 mps 747 mmHg 10%
    11:00 +33°C° 0 mm 4 mps 746 mmHg 9%
    12:00 +35°C° 0 mm 4 mps 745 mmHg 8%
    13:00 +38°C° 0 mm 3 mps 745 mmHg 6%
    14:00 +38°C° 0 mm 3 mps 744 mmHg 6%
    15:00 +39°C° 0 mm 2 mps 743 mmHg 6%
    16:00 +40°C° 0 mm 2 mps 742 mmHg 6%
    17:00 +37°C° 0 mm 2 mps 742 mmHg 7%
    18:00 +33°C° 0 mm 1 mps 743 mmHg 8%
    19:00 +31°C° 0 mm 1 mps 743 mmHg 10%
    20:00 +30°C° 0 mm 1 mps 743 mmHg 10%
    21:00 +29°C° 0 mm 1 mps 744 mmHg 11%
    22:00 +27°C° 0 mm 1 mps 744 mmHg 12%
    23:00 +27°C° 0 mm 1 mps 744 mmHg 12%

    27 January, Monday

    Time Temperature Precipitation Wind Pressure Humidity
    00:00 +26°C° 0 mm 1 mps 744 mmHg 13%
    01:00 +25°C° 0 mm 1 mps 744 mmHg 13%
    02:00 +24°C° 0 mm 1 mps 744 mmHg 14%
    03:00 +23°C° 0 mm 1 mps 744 mmHg 15%
    04:00 +22°C° 0 mm 1 mps 744 mmHg 16%
    05:00 +22°C° 0 mm 1 mps 744 mmHg 18%
    06:00 +22°C° 0 mm 1 mps 745 mmHg 19%
    07:00 +21°C° 0 mm 1 mps 745 mmHg 21%
    08:00 +25°C° 0 mm 2 mps 746 mmHg 18%
    09:00 +28°C° 0 mm 2 mps 746 mmHg 15%
    10:00 +33°C° 0 mm 3 mps 746 mmHg 12%
    11:00 +35°C° 0 mm 3 mps 746 mmHg 10%
    12:00 +37°C° 0 mm 3 mps 745 mmHg 9%
    13:00 +39°C° 0 mm 3 mps 744 mmHg 7%
    14:00 +39°C° 0 mm 2 mps 743 mmHg 7%
    15:00 +40°C° 0 mm 2 mps 743 mmHg 6%
    16:00 +41°C° 0 mm 1 mps 742 mmHg 6%
    17:00 +37°C° 0 mm 1 mps 742 mmHg 8%
    18:00 +34°C° 0 mm 1 mps 742 mmHg 9%
    19:00 +29°C° 0 mm 0 mps 742 mmHg 11%
    20:00 +28°C° 0 mm 0 mps 742 mmHg 11%
    21:00 +27°C° 0 mm 0 mps 743 mmHg 12%
    22:00 +25°C° 0 mm 0 mps 744 mmHg 13%
    23:00 +25°C° 0 mm 0 mps 744 mmHg 13%

    28 January, Tuesday

    Time Temperature Precipitation Wind Pressure Humidity
    00:00 +25°C° 0 mm 0 mps 744 mmHg 14%
    01:00 +26°C° 0 mm 1 mps 744 mmHg 14%
    02:00 +25°C° 0 mm 1 mps 744 mmHg 24%
    03:00 +24°C° 0 mm 1 mps 744 mmHg 34%
    04:00 +21°C° 0 mm 2 mps 744 mmHg 45%
    05:00 +22°C° 0 mm 1 mps 744 mmHg 59%
    06:00 +22°C° 0 mm 1 mps 745 mmHg 73%
    07:00 +22°C° 0 mm 1 mps 745 mmHg 88%
    08:00 +25°C° 0 mm 1 mps 745 mmHg 74%
    09:00 +29°C° 0 mm 1 mps 746 mmHg 61%
    10:00 +32°C° 0 mm 1 mps 746 mmHg 47%
    11:00 +35°C° 0 mm 1 mps 746 mmHg 38%
    12:00 +38°C° 0 mm 2 mps 745 mmHg 28%
    13:00 +40°C° 0 mm 2 mps 744 mmHg 18%
    14:00 +40°C° 0 mm 2 mps 743 mmHg 16%
    15:00 +40°C° 0 mm 2 mps 742 mmHg 14%
    16:00 +41°C° 0 mm 2 mps 742 mmHg 12%
    17:00 +38°C° 0 mm 2 mps 742 mmHg 12%
    18:00 +36°C° 0 mm 2 mps 742 mmHg 12%
    19:00 +34°C° 0 mm 2 mps 742 mmHg 12%
    20:00 +32°C° 0 mm 1 mps 742 mmHg 12%
    21:00 +31°C° 0 mm 1 mps 743 mmHg 12%
    22:00 +30°C° 0 mm 1 mps 744 mmHg 12%
    23:00 +29°C° 0 mm 1 mps 744 mmHg 14%
    Show more